Flag for Algeria Weather past 2 weeks in Constantine, Algeria

Now
39 °F

Light rain. Broken clouds.


Feels Like: 28 °F
Forecast: 40 / 50 °F
Wind: 29 mph from North

Location: Constantine Airport

Current Time: Mar 6, 2015 at 1:50:36 PM

Latest Report: Mar 6, 2015 at 1:30 PM


Visibility: 4 mi

Pressure: 30.27 "Hg

Humidity: 75%

Dew point: 32 °F

Location of ConstantineLocation

Historic Weather in Constantine — Graph

°F

Constantine temperature yesterday

Maximum temperature yesterday: 48 °F (at 12:00 AM)
Minimum temperature yesterday: 34 °F (at 9:00 AM)
Average temperature yesterday: 40 °F

Past Weeks' High & Low Weather Summary

 TemperatureHumidityPressure
High73 °F (Mar 3, 3:00 PM)94% (Feb 21, 9:30 AM)30.36 "Hg (Feb 21, 9:30 AM)
Low32 °F (Mar 6, 4:00 AM)38% (Mar 4, 2:30 PM)29.47 "Hg (Feb 22, 3:00 AM)
Average45 °F79%30.06 "Hg
* Reported Feb 19 12:00 Noon — Mar 6 12:30 PM, Constantine, Weather by CustomWeather, © 2015

Note: Actual official high and low records may vary slightly from our data, if they occured in-between our weather recording intervals... More about our weather records

Advertising

Constantine weather history for previous 24 hours

 ConditionsComfort  
Time TempWeatherWind HumidityBarometerVisibility
12:30 PM
Fri, Mar 6
43 °FBroken clouds.14 mph87%30.27 "Hg5 mi
12:00 PM39 °FLight rain. Broken clouds.14 mph81%30.27 "Hg4 mi
11:30 AM45 °FScattered clouds.12 mph71%30.27 "HgN/A
11:00 AM41 °FScattered clouds.18 mph81%30.27 "HgN/A
10:30 AM41 °FBroken clouds.14 mph81%30.27 "Hg5 mi
10:00 AM39 °FLight rain. Broken clouds.18 mph81%30.27 "Hg3 mi
9:30 AM39 °FScattered clouds.16 mph87%30.24 "Hg5 mi
9:00 AM39 °FScattered clouds.13 mph87%30.24 "Hg5 mi
8:30 AM36 °FScattered clouds.13 mph87%30.24 "Hg5 mi
8:00 AM36 °FScattered clouds.14 mph87%30.24 "Hg5 mi
7:30 AM36 °FScattered clouds.13 mph87%30.24 "Hg5 mi
7:00 AM34 °FBroken clouds.9 mph93%30.24 "Hg5 mi
6:30 AM34 °FLight rain. Partly cloudy.9 mph93%30.21 "Hg4 mi
6:00 AM36 °FLight rain. Partly cloudy.12 mph87%30.21 "Hg4 mi
5:30 AM34 °FLight rain. Partly cloudy.9 mph93%30.21 "Hg4 mi
5:00 AM34 °FPartly cloudy.8 mph93%30.21 "Hg4 mi
4:30 AM34 °FPartly cloudy.7 mph87%30.21 "Hg4 mi
4:00 AM32 °FPartly cloudy.6 mph93%30.21 "Hg4 mi
3:30 AM34 °FLight rain. Partly cloudy.16 mph87%30.21 "Hg3 mi
3:00 AM34 °FPartly cloudy.16 mph87%30.21 "Hg5 mi
2:30 AM36 °FPartly cloudy.14 mph87%30.21 "Hg5 mi
2:00 AM36 °FPartly cloudy.No wind87%30.21 "Hg5 mi
1:30 AM36 °FPartly cloudy.12 mph87%30.21 "Hg5 mi
1:00 AM36 °FPartly cloudy.15 mph87%30.21 "Hg5 mi
12:30 AM36 °FPartly cloudy.14 mph87%30.21 "Hg5 mi
12:00 AM36 °FPartly cloudy.14 mph81%30.21 "Hg5 mi
11:30 PM
Thu, Mar 5
37 °FPartly cloudy.21 mph81%30.21 "Hg5 mi
11:00 PM37 °FPartly cloudy.16 mph81%30.21 "Hg5 mi
10:30 PM37 °FPartly cloudy.12 mph87%30.21 "Hg5 mi
9:30 PM37 °FPartly cloudy.14 mph87%30.18 "Hg5 mi
9:00 PM37 °FLight rain. Partly cloudy.13 mph93%30.18 "Hg3 mi
8:30 PM36 °FLight rain. Partly cloudy.12 mph93%30.18 "Hg3 mi
8:00 PM34 °FLight rain. Partly cloudy.2 mph93%30.18 "Hg3 mi
7:30 PM34 °FLight rain. Partly cloudy.5 mph87%30.18 "Hg3 mi
7:00 PM34 °FLight rain. Partly cloudy.6 mph87%30.18 "Hg3 mi
6:30 PM37 °FLight rain. Broken clouds.16 mph87%30.15 "Hg3 mi
6:00 PM37 °FBroken clouds.16 mph87%30.15 "Hg5 mi
5:30 PM36 °FLight rain. Broken clouds.14 mph87%30.15 "Hg4 mi
5:00 PM36 °FLight rain. Broken clouds.18 mph93%30.15 "Hg4 mi
4:30 PM37 °FBroken clouds.18 mph87%30.12 "Hg5 mi
4:00 PM39 °FBroken clouds.21 mph75%30.12 "Hg5 mi
3:30 PM39 °FBroken clouds.28 mph70%30.12 "Hg5 mi
3:00 PM43 °FBroken clouds.21 mph61%30.12 "Hg5 mi
2:30 PM45 °FBroken clouds.25 mph61%30.12 "Hg5 mi
2:00 PM43 °FBroken clouds.23 mph66%30.12 "Hg5 mi
1:30 PM46 °FBroken clouds.29 mph57%30.15 "Hg5 mi
1:00 PM46 °FBroken clouds.30 mph57%30.15 "Hg5 mi
Weather by CustomWeather, © 2015

See weather overviewHow to use our weather pages